Dewpoint
77 73 72 74 75 72 72 72 73 71 73 74 75 74 76 77 70 73 71 73 76 75
77 76 74 74 74 71 72 68 72 71 72 74 74 75 76 72 74 73 72 70 73 71
73 75 74 74 73 71 70 71 73 75 74 73 75 75 76 75 74 73 69 67 72 75
72 72 72 71 69 71 71 72 72 73 74 74 75 76 77 75 75 73 74 72 73 75
68 69 67 69 69 72 71 71 73 74 74 73 73 76 76 75 74 73 73 73 75 73
62 60 58 61 63 64 66 67 66 69 75 75 74 75 76 76 76 75 73 74 74 73
61 60 60 63 65 64 67 66 66 66 69 70 72 73 74 75 75 75 74 74 74 74
65 66 66 68 68 67 68 67 67 69 69 69 66 64 75 75 75 75 75 74 75 73
66 67 67 68 69 71 70 69 70 68 69 68 62 63 69 71 73 74 72 74 74 75
65 66 68 68 70 70 70 70 70 69 69 69 70 63 66 68 70 73 73 72 71 72
66 67 68 68 69 70 70 69 69 69 70 70 69 63 64 66 71 69 70 70 70 70
66 66 68 68 69 69 69 68 68 68 69 69 70 63 62 66 68 67 69 70 70 69
66 66 66 67 68 68 68 68 64 66 67 65 68 63 60 64 65 65 64 68 70 65
64 65 66 66 67 67 67 66 67 66 66 67 66 66 59 59 66 62 61 60 60 62
Lifted_Index
-8 -8 -7 -7 -7 -6 -6 -6 -6 -6 -6 -6 -6 -6 -6 -6 -5 -5 -5 -5 -5 -5
-8 -7 -7 -7 -6 -6 -5 -5 -6 -6 -6 -6 -6 -6 -6 -6 -6 -5 -5 -5 -5 -5
-7 -7 -7 -6 -6 -5 -5 -5 -6 -6 -6 -7 -7 -7 -6 -6 -6 -6 -5 -5 -5 -5
-6 -6 -6 -5 -5 -5 -5 -5 -5 -6 -6 -7 -7 -7 -7 -6 -6 -6 -6 -5 -5 -5
-4 -4 -4 -3 -3 -4 -4 -4 -4 -5 -5 -6 -6 -7 -7 -7 -6 -6 -6 -6 -6 -6
-2 -2 -1 -1 -2 -2 -2 -2 -2 -3 -4 -5 -5 -6 -7 -7 -7 -6 -6 -7 -6 -6
-1 -1 -1 -1 -1 -1 -1 -1 -1 -1 -2 -3 -4 -5 -6 -6 -6 -6 -7 -7 -7 -6
-1 -1 -1 -1 -1 -1 -1 -1 -1 -1 -1 -1 -1 -3 -4 -5 -6 -6 -6 -6 -6 -6
-0 -0 -1 -1 -1 -1 -1 -1 -1 -0 -0 -0 -0 -1 -2 -3 -4 -5 -5 -5 -5 -6
1 0 -0 -1 -1 -1 -1 -1 -0 -0 0 -0 -0 -0 -1 -2 -3 -3 -3 -3 -4 -4
0 -0 -1 -1 -1 -1 -1 -0 0 0 0 -0 -1 -0 -0 -1 -2 -2 -2 -2 -2 -2
-1 -1 -1 -1 -1 -1 -1 -0 0 0 -0 -1 -1 -1 -1 -1 -1 -1 -1 -1 -1 -1
-0 -1 -1 -1 -1 -1 -1 -0 0 0 -0 -0 -1 -1 -1 -1 -1 -1 -1 -1 -1 -0
0 0 0 -0 -0 -0 -0 -0 0 0 0 0 -0 -1 -1 -1 -2 -2 -1 0 0 0